Regional Weather Roundup
Issued by NWS

Home | Current Version | Previous Version | Graphics & Text | Print | Product List | Glossary On
Versions: 1 2 3 4 5 6 7 8 9 10 11 12 13 14 15 16 17 18 19 20 21 22 23 24 25 26 27 28 29 30 31 32 33 34 35 36 37 38 39 40 41 42 43 44 45 46 47 48 49 50
000
ASUS43 KTOP 180259
RWRKS

WEATHER ROUNDUP FOR KANSAS
NATIONAL WEATHER SERVICE GOODLAND KS
900 PM CST TUE JAN 17 2017

NOTE:  "FAIR" INDICATES FEW OR NO CLOUDS BELOW 12,000 FEET WITH NO
SIGNIFICANT WEATHER AND/OR OBSTRUCTIONS TO VISIBILITY.

KSZ001>006-013>018-027>032-041>047-180400-
NORTHWEST KANSAS

CITY           SKY/WX    TMP DP  RH WIND       PRES   REMARKS
GOODLAND       CLEAR     34  30  85 SW7       30.04R
HAYS           CLEAR     33  28  81 S3        30.12R
HILL CITY      CLEAR     31  27  85 SW5       30.10R
RUSSELL        CLEAR     32  29  88 S9        30.11R
$$

KSZ061>065-074>080-084>089-180400-
SOUTHWEST KANSAS

CITY           SKY/WX    TMP DP  RH WIND       PRES   REMARKS
DODGE CITY     CLOUDY    35  28  75 SE7       30.13R
ELKHART          N/A     35  27  73 S9          N/A
GARDEN CITY    CLOUDY    33  28  81 SE6       30.10S
GREAT BEND     CLEAR     31  28  89 S7        30.14S
LIBERAL        CLOUDY    37  28  70 SE6       30.11F
$$

KSZ066>073-081>083-090>101-180400-
SOUTHEAST KANSAS

CITY           SKY/WX    TMP DP  RH WIND       PRES   REMARKS
CHANUTE        CLEAR     33  31  92 S5        30.18R
COFFEYVILLE    PTCLDY    34  33  96 E3        30.19S
HUTCHINSON     CLOUDY    31  28  89 CALM      30.15R
MEDICINE LODGE   N/A     38  32  79 E3        30.15R
NEWTON         CLEAR     37  32  82 S6        30.16R
PARSONS        CLOUDY    36  33  89 CALM      30.18S
WICHITA INTL   CLOUDY    35  32  88 CALM      30.14S
WICHITA JABRA  CLOUDY    39  31  72 CALM      30.14S
WINFIELD       CLOUDY    37  32  82 CALM      30.18R
$$

KSZ007>012-019>026-033>040-048>060-102>105-180400-
NORTHEAST KANSAS

CITY           SKY/WX    TMP DP  RH WIND       PRES   REMARKS
CONCORDIA      CLEAR     33  30  88 S8        30.11R
EMPORIA        CLEAR     35  28  75 SW6       30.15S
LAWRENCE       CLEAR     28  28 100 E3        30.16S FOG
MANHATTAN      CLOUDY    27  24  89 CALM      30.15R
OLATHE IND     CLEAR     32  31  96 S6        30.16S
OLATHE EXE     PTCLDY    31  31 100 S6        30.16R
SALINA         CLEAR     34  28  79 S6        30.14R
TOPEKA BILLARD CLOUDY    31  28  89 S5        30.16R
TOPEKA FORBES  CLEAR     31  28  89 CALM      30.15S
$$



USA.gov is the U.S. government's official web portal to all federal, state and local government web resources and services.